Year,Month,Day,Hour,Minute,Value (Times are PST for temperature in C)
2013,05,20,00,00,10.10
2013,05,20,00,01,10.10
2013,05,20,00,02,10.10
2013,05,20,00,03,10.10
2013,05,20,00,04,10.10
2013,05,20,00,05,10.10
2013,05,20,00,06,10.10
2013,05,20,00,07,10.10
2013,05,20,00,08,10.00
2013,05,20,00,09,9.90
2013,05,20,00,10,9.90
2013,05,20,00,11,9.90
2013,05,20,00,12,9.90
2013,05,20,00,13,9.90
2013,05,20,00,14,9.90
2013,05,20,00,15,9.90
2013,05,20,00,16,9.80
2013,05,20,00,17,9.80
2013,05,20,00,18,9.80
2013,05,20,00,19,9.80
2013,05,20,00,20,9.70
2013,05,20,00,21,9.70
2013,05,20,00,22,9.70
2013,05,20,00,23,9.70
2013,05,20,00,24,9.70
2013,05,20,00,25,9.70
2013,05,20,00,26,9.60
2013,05,20,00,27,9.60
2013,05,20,00,28,9.60
2013,05,20,00,29,9.60
2013,05,20,00,30,9.50
2013,05,20,00,31,9.50
2013,05,20,00,32,9.50
2013,05,20,00,33,9.40
2013,05,20,00,34,9.40
2013,05,20,00,35,9.40
2013,05,20,00,36,9.30
2013,05,20,00,37,9.30
2013,05,20,00,38,9.30
2013,05,20,00,39,9.20
2013,05,20,00,40,9.20
2013,05,20,00,41,9.20
2013,05,20,00,42,9.20
2013,05,20,00,43,9.20
2013,05,20,00,44,9.20
2013,05,20,00,45,9.20
2013,05,20,00,46,9.20
2013,05,20,00,47,9.20
2013,05,20,00,48,9.10
2013,05,20,00,49,9.10
2013,05,20,00,50,9.10
2013,05,20,00,51,9.10
2013,05,20,00,52,9.00
2013,05,20,00,53,9.00
2013,05,20,00,54,9.00
2013,05,20,00,55,9.00
2013,05,20,00,56,8.90
2013,05,20,00,57,8.90
2013,05,20,00,58,8.90
2013,05,20,00,59,8.90
2013,05,20,01,00,8.90
2013,05,20,01,01,8.90
2013,05,20,01,02,8.90
2013,05,20,01,03,8.90
2013,05,20,01,04,8.80
2013,05,20,01,05,8.80
2013,05,20,01,06,8.80
2013,05,20,01,07,8.80
2013,05,20,01,08,8.70
2013,05,20,01,09,8.70
2013,05,20,01,10,8.70
2013,05,20,01,11,8.70
2013,05,20,01,12,8.70
2013,05,20,01,13,8.70
2013,05,20,01,14,8.70
2013,05,20,01,15,8.60
2013,05,20,01,16,8.60
2013,05,20,01,17,8.60
2013,05,20,01,18,8.60
2013,05,20,01,19,8.60
2013,05,20,01,20,8.60
2013,05,20,01,21,8.60
2013,05,20,01,22,8.50
2013,05,20,01,23,8.50
2013,05,20,01,24,8.50
2013,05,20,01,25,8.50
2013,05,20,01,26,8.40
2013,05,20,01,27,8.40
2013,05,20,01,28,8.40
2013,05,20,01,29,8.40
2013,05,20,01,30,8.40
2013,05,20,01,31,8.30
2013,05,20,01,32,8.30
2013,05,20,01,33,8.30
2013,05,20,01,34,8.30
2013,05,20,01,35,8.30
2013,05,20,01,36,8.30
2013,05,20,01,37,8.30
2013,05,20,01,38,8.20
2013,05,20,01,39,8.20
2013,05,20,01,40,8.20
2013,05,20,01,41,8.20
2013,05,20,01,42,8.20
2013,05,20,01,43,8.20
2013,05,20,01,44,8.20
2013,05,20,01,45,8.20
2013,05,20,01,46,8.20
2013,05,20,01,47,8.20
2013,05,20,01,48,8.10
2013,05,20,01,49,8.10
2013,05,20,01,50,8.10
2013,05,20,01,51,8.10
2013,05,20,01,52,8.10
2013,05,20,01,53,8.10
2013,05,20,01,54,8.20
2013,05,20,01,55,8.20
2013,05,20,01,56,8.20
2013,05,20,01,57,8.20
2013,05,20,01,58,8.20
2013,05,20,01,59,8.10
2013,05,20,02,00,8.10
2013,05,20,02,01,8.10
2013,05,20,02,02,8.10
2013,05,20,02,03,8.10
2013,05,20,02,04,8.10
2013,05,20,02,05,8.10
2013,05,20,02,06,8.10
2013,05,20,02,07,8.10
2013,05,20,02,08,8.10
2013,05,20,02,09,8.10
2013,05,20,02,10,8.10
2013,05,20,02,11,8.10
2013,05,20,02,12,8.10
2013,05,20,02,13,8.10
2013,05,20,02,14,8.10
2013,05,20,02,15,8.10
2013,05,20,02,16,8.10
2013,05,20,02,17,8.10
2013,05,20,02,18,8.10
2013,05,20,02,19,8.00
2013,05,20,02,20,8.00
2013,05,20,02,21,8.00
2013,05,20,02,22,8.00
2013,05,20,02,23,8.00
2013,05,20,02,24,8.00
2013,05,20,02,25,7.90
2013,05,20,02,26,7.90
2013,05,20,02,27,7.90
2013,05,20,02,28,7.80
2013,05,20,02,29,7.80
2013,05,20,02,30,7.80
2013,05,20,02,31,7.80
2013,05,20,02,32,7.80
2013,05,20,02,33,7.80
2013,05,20,02,34,7.80
2013,05,20,02,35,7.80
2013,05,20,02,36,7.80
2013,05,20,02,37,7.80
2013,05,20,02,38,7.80
2013,05,20,02,39,7.70
2013,05,20,02,40,7.70
2013,05,20,02,41,7.70
2013,05,20,02,42,7.60
2013,05,20,02,43,7.60
2013,05,20,02,44,7.60
2013,05,20,02,45,7.60
2013,05,20,02,46,7.60
2013,05,20,02,47,7.50
2013,05,20,02,48,7.50
2013,05,20,02,49,7.50
2013,05,20,02,50,7.50
2013,05,20,02,51,7.50
2013,05,20,02,52,7.50
2013,05,20,02,53,7.60
2013,05,20,02,54,7.60
2013,05,20,02,55,7.60
2013,05,20,02,56,7.60
2013,05,20,02,57,7.60
2013,05,20,02,58,7.60
2013,05,20,02,59,7.60
2013,05,20,03,00,7.60
2013,05,20,03,01,7.60
2013,05,20,03,02,7.60
2013,05,20,03,03,7.60
2013,05,20,03,04,7.60
2013,05,20,03,05,7.50
2013,05,20,03,06,7.50
2013,05,20,03,07,7.50
2013,05,20,03,08,7.50
2013,05,20,03,09,7.40
2013,05,20,03,10,7.40
2013,05,20,03,11,7.40
2013,05,20,03,12,7.40
2013,05,20,03,13,7.30
2013,05,20,03,14,7.30
2013,05,20,03,15,7.30
2013,05,20,03,16,7.30
2013,05,20,03,17,7.30
2013,05,20,03,18,7.30
2013,05,20,03,19,7.30
2013,05,20,03,20,7.30
2013,05,20,03,21,7.30
2013,05,20,03,22,7.30
2013,05,20,03,23,7.30
2013,05,20,03,24,7.30
2013,05,20,03,25,7.30
2013,05,20,03,26,7.30
2013,05,20,03,27,7.30
2013,05,20,03,28,7.20
2013,05,20,03,29,7.20
2013,05,20,03,30,7.20
2013,05,20,03,31,7.20
2013,05,20,03,32,7.10
2013,05,20,03,33,7.10
2013,05,20,03,34,7.20
2013,05,20,03,35,7.20
2013,05,20,03,36,7.20
2013,05,20,03,37,7.20
2013,05,20,03,38,7.20
2013,05,20,03,39,7.20
2013,05,20,03,40,7.20
2013,05,20,03,41,7.20
2013,05,20,03,42,7.20
2013,05,20,03,43,7.10
2013,05,20,03,44,7.10
2013,05,20,03,45,7.10
2013,05,20,03,46,7.10
2013,05,20,03,47,7.00
2013,05,20,03,48,7.00
2013,05,20,03,49,7.00
2013,05,20,03,50,7.00
2013,05,20,03,51,7.00
2013,05,20,03,52,7.00
2013,05,20,03,53,7.00
2013,05,20,03,54,7.00
2013,05,20,03,55,6.90
2013,05,20,03,56,6.90
2013,05,20,03,57,6.90
2013,05,20,03,58,6.80
2013,05,20,03,59,6.80
2013,05,20,04,00,6.80
2013,05,20,04,01,6.80
2013,05,20,04,02,6.80
2013,05,20,04,03,6.80
2013,05,20,04,04,6.80
2013,05,20,04,05,6.80
2013,05,20,04,06,6.80
2013,05,20,04,07,6.70
2013,05,20,04,08,6.70
2013,05,20,04,09,6.70
2013,05,20,04,10,6.70
2013,05,20,04,11,6.70
2013,05,20,04,12,6.70
2013,05,20,04,13,6.70
2013,05,20,04,14,6.70
2013,05,20,04,15,6.70
2013,05,20,04,16,6.80
2013,05,20,04,17,6.80
2013,05,20,04,18,6.80
2013,05,20,04,19,6.80
2013,05,20,04,20,6.80
2013,05,20,04,21,6.80
2013,05,20,04,22,6.80
2013,05,20,04,23,6.70
2013,05,20,04,24,6.70
2013,05,20,04,25,6.70
2013,05,20,04,26,6.70
2013,05,20,04,27,6.70
2013,05,20,04,28,6.60
2013,05,20,04,29,6.60
2013,05,20,04,30,6.60
2013,05,20,04,31,6.60
2013,05,20,04,32,6.60
2013,05,20,04,33,6.70
2013,05,20,04,34,6.70
2013,05,20,04,35,6.70
2013,05,20,04,36,6.70
2013,05,20,04,37,6.70
2013,05,20,04,38,6.80
2013,05,20,04,39,6.80
2013,05,20,04,40,6.80
2013,05,20,04,41,6.80
2013,05,20,04,42,6.80
2013,05,20,04,43,6.80
2013,05,20,04,44,6.80
2013,05,20,04,45,6.80
2013,05,20,04,46,6.80
2013,05,20,04,47,6.80
2013,05,20,04,48,6.80
2013,05,20,04,49,6.80
2013,05,20,04,50,6.80
2013,05,20,04,51,6.70
2013,05,20,04,52,6.70
2013,05,20,04,53,6.70
2013,05,20,04,54,6.60
2013,05,20,04,55,6.60
2013,05,20,04,56,6.60
2013,05,20,04,57,6.60
2013,05,20,04,58,6.60
2013,05,20,04,59,6.60
2013,05,20,05,00,6.60
2013,05,20,05,01,6.60
2013,05,20,05,02,6.50
2013,05,20,05,03,6.40
2013,05,20,05,04,6.40
2013,05,20,05,05,6.40
2013,05,20,05,06,6.40
2013,05,20,05,07,6.40
2013,05,20,05,08,6.40
2013,05,20,05,09,6.40
2013,05,20,05,10,6.40
2013,05,20,05,11,6.50
2013,05,20,05,12,6.60
2013,05,20,05,13,6.60
2013,05,20,05,14,6.50
2013,05,20,05,15,6.40
2013,05,20,05,16,6.40
2013,05,20,05,17,6.40
2013,05,20,05,18,6.40
2013,05,20,05,19,6.40
2013,05,20,05,20,6.40
2013,05,20,05,21,6.40
2013,05,20,05,22,6.30
2013,05,20,05,23,6.30
2013,05,20,05,24,6.30
2013,05,20,05,25,6.20
2013,05,20,05,26,6.20
2013,05,20,05,27,6.20
2013,05,20,05,28,6.20
2013,05,20,05,29,6.20
2013,05,20,05,30,6.20
2013,05,20,05,31,6.20
2013,05,20,05,32,6.20
2013,05,20,05,33,6.20
2013,05,20,05,34,6.20
2013,05,20,05,35,6.20
2013,05,20,05,36,6.20
2013,05,20,05,37,6.20
2013,05,20,05,38,6.20
2013,05,20,05,39,6.20
2013,05,20,05,40,6.20
2013,05,20,05,41,6.20
2013,05,20,05,42,6.20
2013,05,20,05,43,6.20
2013,05,20,05,44,6.20
2013,05,20,05,45,6.20
2013,05,20,05,46,6.20
2013,05,20,05,47,6.20
2013,05,20,05,48,6.30
2013,05,20,05,49,6.30
2013,05,20,05,50,6.30
2013,05,20,05,51,6.40
2013,05,20,05,52,6.40
2013,05,20,05,53,6.40
2013,05,20,05,54,6.40
2013,05,20,05,55,6.40
2013,05,20,05,56,6.40
2013,05,20,05,57,6.40
2013,05,20,05,58,6.40
2013,05,20,05,59,6.40
2013,05,20,06,00,6.40
2013,05,20,06,01,6.40
2013,05,20,06,02,6.40
2013,05,20,06,03,6.40
2013,05,20,06,04,6.40
2013,05,20,06,05,6.40
2013,05,20,06,06,6.40
2013,05,20,06,07,6.40
2013,05,20,06,08,6.50
2013,05,20,06,09,6.60
2013,05,20,06,10,6.60
2013,05,20,06,11,6.60
2013,05,20,06,12,6.60
2013,05,20,06,13,6.50
2013,05,20,06,14,6.40
2013,05,20,06,15,6.40
2013,05,20,06,16,6.40
2013,05,20,06,17,6.40
2013,05,20,06,18,6.40
2013,05,20,06,19,6.40
2013,05,20,06,20,6.40
2013,05,20,06,21,6.40
2013,05,20,06,22,6.40
2013,05,20,06,23,6.40
2013,05,20,06,24,6.50
2013,05,20,06,25,6.60
2013,05,20,06,26,6.60
2013,05,20,06,27,6.60
2013,05,20,06,28,6.60
2013,05,20,06,29,6.70
2013,05,20,06,30,6.70
2013,05,20,06,31,6.70
2013,05,20,06,32,6.80
2013,05,20,06,33,6.80
2013,05,20,06,34,6.80
2013,05,20,06,35,6.90
2013,05,20,06,36,7.00
2013,05,20,06,37,7.00
2013,05,20,06,38,7.10
2013,05,20,06,39,7.20
2013,05,20,06,40,7.30
2013,05,20,06,41,7.40
2013,05,20,06,42,7.50
2013,05,20,06,43,7.60
2013,05,20,06,44,7.80
2013,05,20,06,45,7.80
2013,05,20,06,46,7.90
2013,05,20,06,47,8.00
2013,05,20,06,48,8.00
2013,05,20,06,49,8.00
2013,05,20,06,50,8.10
2013,05,20,06,51,8.20
2013,05,20,06,52,8.30
2013,05,20,06,53,8.40
2013,05,20,06,54,8.40
2013,05,20,06,55,8.50
2013,05,20,06,56,8.50
2013,05,20,06,57,8.50
2013,05,20,06,58,8.60
2013,05,20,06,59,8.60
2013,05,20,07,00,8.60
2013,05,20,07,01,8.70
2013,05,20,07,02,8.70
2013,05,20,07,03,8.70
2013,05,20,07,04,8.70
2013,05,20,07,05,8.70
2013,05,20,07,06,8.80
2013,05,20,07,07,8.80
2013,05,20,07,08,8.80
2013,05,20,07,09,8.80
2013,05,20,07,10,8.80
2013,05,20,07,11,8.90
2013,05,20,07,12,8.90
2013,05,20,07,13,8.90
2013,05,20,07,14,9.00
2013,05,20,07,15,9.00
2013,05,20,07,16,9.10
2013,05,20,07,17,9.20
2013,05,20,07,18,9.20
2013,05,20,07,19,9.30
2013,05,20,07,20,9.40
2013,05,20,07,21,9.50
2013,05,20,07,22,9.60
2013,05,20,07,23,9.60
2013,05,20,07,24,9.70
2013,05,20,07,25,9.70
2013,05,20,07,26,9.70
2013,05,20,07,27,9.70
2013,05,20,07,28,9.70
2013,05,20,07,29,9.70
2013,05,20,07,30,9.70
2013,05,20,07,31,9.70
2013,05,20,07,32,9.80
2013,05,20,07,33,9.80
2013,05,20,07,34,9.90
2013,05,20,07,35,9.90
2013,05,20,07,36,9.90
2013,05,20,07,37,9.90
2013,05,20,07,38,9.90
2013,05,20,07,39,9.90
2013,05,20,07,40,9.90
2013,05,20,07,41,10.00
2013,05,20,07,42,10.10
2013,05,20,07,43,10.10
2013,05,20,07,44,10.10
2013,05,20,07,45,10.20
2013,05,20,07,46,10.20
2013,05,20,07,47,10.30
2013,05,20,07,48,10.30
2013,05,20,07,49,10.30
2013,05,20,07,50,10.30
2013,05,20,07,51,10.30
2013,05,20,07,52,10.40
2013,05,20,07,53,10.40
2013,05,20,07,54,10.50
2013,05,20,07,55,10.60
2013,05,20,07,56,10.60
2013,05,20,07,57,10.70
2013,05,20,07,58,10.70
2013,05,20,07,59,10.70
2013,05,20,08,00,10.80
2013,05,20,08,01,10.80
2013,05,20,08,02,10.80
2013,05,20,08,03,10.80
2013,05,20,08,04,10.90
2013,05,20,08,05,10.90
2013,05,20,08,06,10.90
2013,05,20,08,07,10.90
2013,05,20,08,08,10.90
2013,05,20,08,09,10.90
2013,05,20,08,10,10.90
2013,05,20,08,11,10.90
2013,05,20,08,12,10.90
2013,05,20,08,13,10.90
2013,05,20,08,14,11.10
2013,05,20,08,15,11.10
2013,05,20,08,16,11.10
2013,05,20,08,17,11.10
2013,05,20,08,18,11.10
2013,05,20,08,19,11.10
2013,05,20,08,20,11.10
2013,05,20,08,21,11.10
2013,05,20,08,22,11.10
2013,05,20,08,23,11.10
2013,05,20,08,24,11.10
2013,05,20,08,25,11.10
2013,05,20,08,26,11.10
2013,05,20,08,27,11.20
2013,05,20,08,28,11.30
2013,05,20,08,29,11.30
2013,05,20,08,30,11.40
2013,05,20,08,31,11.40
2013,05,20,08,32,11.40
2013,05,20,08,33,11.40
2013,05,20,08,34,11.40
2013,05,20,08,35,11.50
2013,05,20,08,36,11.60
2013,05,20,08,37,11.60
2013,05,20,08,38,11.70
2013,05,20,08,39,11.80
2013,05,20,08,40,11.80
2013,05,20,08,41,11.90
2013,05,20,08,42,12.00
2013,05,20,08,43,12.00
2013,05,20,08,44,12.00
2013,05,20,08,45,12.00
2013,05,20,08,46,12.10
2013,05,20,08,47,12.10
2013,05,20,08,48,12.10
2013,05,20,08,49,12.00
2013,05,20,08,50,11.90
2013,05,20,08,51,11.90
2013,05,20,08,52,11.80
2013,05,20,08,53,11.80
2013,05,20,08,54,11.80
2013,05,20,08,55,11.80
2013,05,20,08,56,11.80
2013,05,20,08,57,11.80
2013,05,20,08,58,11.80
2013,05,20,08,59,11.90
2013,05,20,09,00,11.90
2013,05,20,09,01,11.90
2013,05,20,09,02,12.00
2013,05,20,09,03,12.00
2013,05,20,09,04,12.00
2013,05,20,09,05,12.10
2013,05,20,09,06,12.20
2013,05,20,09,07,12.30
2013,05,20,09,08,12.30
2013,05,20,09,09,12.30
2013,05,20,09,10,12.40
2013,05,20,09,11,12.50
2013,05,20,09,12,12.50
2013,05,20,09,13,12.60
2013,05,20,09,14,12.60
2013,05,20,09,15,12.70
2013,05,20,09,16,12.80
2013,05,20,09,17,12.80
2013,05,20,09,18,12.80
2013,05,20,09,19,12.80
2013,05,20,09,20,12.90
2013,05,20,09,21,12.90
2013,05,20,09,22,13.00
2013,05,20,09,23,13.10
2013,05,20,09,24,13.20
2013,05,20,09,25,13.30
2013,05,20,09,26,13.30
2013,05,20,09,27,13.30
2013,05,20,09,28,13.30
2013,05,20,09,29,13.30
2013,05,20,09,30,13.30
2013,05,20,09,31,13.40
2013,05,20,09,32,13.50
2013,05,20,09,33,13.50
2013,05,20,09,34,13.50
2013,05,20,09,35,13.60
2013,05,20,09,36,13.60
2013,05,20,09,37,13.70
2013,05,20,09,38,13.70
2013,05,20,09,39,13.70
2013,05,20,09,40,13.60
2013,05,20,09,41,13.70
2013,05,20,09,42,13.70
2013,05,20,09,43,13.70
2013,05,20,09,44,13.70
2013,05,20,09,45,13.80
2013,05,20,09,46,13.80
2013,05,20,09,47,13.80
2013,05,20,09,48,13.80
2013,05,20,09,49,13.80
2013,05,20,09,50,13.80
2013,05,20,09,51,13.70
2013,05,20,09,52,13.70
2013,05,20,09,53,13.70
2013,05,20,09,54,13.70
2013,05,20,09,55,13.60
2013,05,20,09,56,13.60
2013,05,20,09,57,13.70
2013,05,20,09,58,13.80
2013,05,20,09,59,13.90
2013,05,20,10,00,14.00
2013,05,20,10,01,14.10
2013,05,20,10,02,14.30
2013,05,20,10,03,14.30
2013,05,20,10,04,14.50
2013,05,20,10,05,14.60
2013,05,20,10,06,14.70
2013,05,20,10,07,14.70
2013,05,20,10,08,14.80
2013,05,20,10,09,14.90
2013,05,20,10,10,15.00
2013,05,20,10,11,14.90
2013,05,20,10,12,14.90
2013,05,20,10,13,15.00
2013,05,20,10,14,15.10
2013,05,20,10,15,15.20
2013,05,20,10,16,15.30
2013,05,20,10,17,15.30
2013,05,20,10,18,15.30
2013,05,20,10,19,15.30
2013,05,20,10,20,15.20
2013,05,20,10,21,15.10
2013,05,20,10,22,15.00
2013,05,20,10,23,15.00
2013,05,20,10,24,14.90
2013,05,20,10,25,14.90
2013,05,20,10,26,14.80
2013,05,20,10,27,14.80
2013,05,20,10,28,14.80
2013,05,20,10,29,14.80
2013,05,20,10,30,14.70
2013,05,20,10,31,14.70
2013,05,20,10,32,14.80
2013,05,20,10,33,14.80
2013,05,20,10,34,14.80
2013,05,20,10,35,14.80
2013,05,20,10,36,14.80
2013,05,20,10,37,14.90
2013,05,20,10,38,15.00
2013,05,20,10,39,14.90
2013,05,20,10,40,14.80
2013,05,20,10,41,14.70
2013,05,20,10,42,14.50
2013,05,20,10,43,14.40
2013,05,20,10,44,14.30
2013,05,20,10,45,14.30
2013,05,20,10,46,14.20
2013,05,20,10,47,14.20
2013,05,20,10,48,14.20
2013,05,20,10,49,14.20
2013,05,20,10,50,14.20
2013,05,20,10,51,14.20
2013,05,20,10,52,14.20
2013,05,20,10,53,14.40
2013,05,20,10,54,14.50
2013,05,20,10,55,14.60
2013,05,20,10,56,14.70
2013,05,20,10,57,14.80
2013,05,20,10,58,14.70
2013,05,20,10,59,14.70
2013,05,20,11,00,14.70
2013,05,20,11,01,14.70
2013,05,20,11,02,14.60
2013,05,20,11,03,14.60
2013,05,20,11,04,14.60
2013,05,20,11,05,14.60
2013,05,20,11,06,14.60
2013,05,20,11,07,14.50
2013,05,20,11,08,14.50
2013,05,20,11,09,14.40
2013,05,20,11,10,14.40
2013,05,20,11,11,14.30
2013,05,20,11,12,14.20
2013,05,20,11,13,14.20
2013,05,20,11,14,14.20
2013,05,20,11,15,14.20
2013,05,20,11,16,14.30
2013,05,20,11,17,14.30
2013,05,20,11,18,14.20
2013,05,20,11,19,14.30
2013,05,20,11,20,14.40
2013,05,20,11,21,14.50
2013,05,20,11,22,14.40
2013,05,20,11,23,14.40
2013,05,20,11,24,14.40
2013,05,20,11,25,14.40
2013,05,20,11,26,14.40
2013,05,20,11,27,14.30
2013,05,20,11,28,14.40
2013,05,20,11,29,14.50
2013,05,20,11,30,14.60
2013,05,20,11,31,14.70
2013,05,20,11,32,14.80
2013,05,20,11,33,14.80
2013,05,20,11,34,14.80
2013,05,20,11,35,14.70
2013,05,20,11,36,14.60
2013,05,20,11,37,14.60
2013,05,20,11,38,14.60
2013,05,20,11,39,14.60
2013,05,20,11,40,14.70
2013,05,20,11,41,14.80
2013,05,20,11,42,14.90
2013,05,20,11,43,14.90
2013,05,20,11,44,14.90
2013,05,20,11,45,14.80
2013,05,20,11,46,14.70
2013,05,20,11,47,14.60
2013,05,20,11,48,14.60
2013,05,20,11,49,14.50
2013,05,20,11,50,14.50
2013,05,20,11,51,14.50
2013,05,20,11,52,14.60
2013,05,20,11,53,14.60
2013,05,20,11,54,14.50
2013,05,20,11,55,14.40
2013,05,20,11,56,14.50
2013,05,20,11,57,14.60
2013,05,20,11,58,14.70
2013,05,20,11,59,14.90
2013,05,20,12,00,15.10
2013,05,20,12,01,15.10
2013,05,20,12,02,15.00
2013,05,20,12,03,14.90
2013,05,20,12,04,14.70
2013,05,20,12,05,14.60
2013,05,20,12,06,14.60
2013,05,20,12,07,14.50
2013,05,20,12,08,14.50
2013,05,20,12,09,14.50
2013,05,20,12,10,14.40
2013,05,20,12,11,14.50
2013,05,20,12,12,14.60
2013,05,20,12,13,14.80
2013,05,20,12,14,14.80
2013,05,20,12,15,14.80
2013,05,20,12,16,14.80
2013,05,20,12,17,14.80
2013,05,20,12,18,14.70
2013,05,20,12,19,14.80
2013,05,20,12,20,15.00
2013,05,20,12,21,15.20
2013,05,20,12,22,15.30
2013,05,20,12,23,15.40
2013,05,20,12,24,15.40
2013,05,20,12,25,15.30
2013,05,20,12,26,15.30
2013,05,20,12,27,15.20
2013,05,20,12,28,15.10
2013,05,20,12,29,14.90
2013,05,20,12,30,15.00
2013,05,20,12,31,15.10
2013,05,20,12,32,15.10
2013,05,20,12,33,15.20
2013,05,20,12,34,15.30
2013,05,20,12,35,15.30
2013,05,20,12,36,15.40
2013,05,20,12,37,15.50
2013,05,20,12,38,15.40
2013,05,20,12,39,15.30
2013,05,20,12,40,15.30
2013,05,20,12,41,15.20
2013,05,20,12,42,15.10
2013,05,20,12,43,15.20
2013,05,20,12,44,15.20
2013,05,20,12,45,15.30
2013,05,20,12,46,15.40
2013,05,20,12,47,15.40
2013,05,20,12,48,15.50
2013,05,20,12,49,15.50
2013,05,20,12,50,15.60
2013,05,20,12,51,15.50
2013,05,20,12,52,15.50
2013,05,20,12,53,15.50
2013,05,20,12,54,15.50
2013,05,20,12,55,15.60
2013,05,20,12,56,15.60
2013,05,20,12,57,15.70
2013,05,20,12,58,15.70
2013,05,20,12,59,15.50
2013,05,20,13,00,15.50
2013,05,20,13,01,15.50
2013,05,20,13,02,15.40
2013,05,20,13,03,15.40
2013,05,20,13,04,15.40
2013,05,20,13,05,15.50
2013,05,20,13,06,15.40
2013,05,20,13,07,15.50
2013,05,20,13,08,15.50
2013,05,20,13,09,15.50
2013,05,20,13,10,15.50
2013,05,20,13,11,15.50
2013,05,20,13,12,15.40
2013,05,20,13,13,15.40
2013,05,20,13,14,15.50
2013,05,20,13,15,15.70
2013,05,20,13,16,15.60
2013,05,20,13,17,15.60
2013,05,20,13,18,15.60
2013,05,20,13,19,15.50
2013,05,20,13,20,15.50
2013,05,20,13,21,15.60
2013,05,20,13,22,15.70
2013,05,20,13,23,15.80
2013,05,20,13,24,15.80
2013,05,20,13,25,15.80
2013,05,20,13,26,15.80
2013,05,20,13,27,15.80
2013,05,20,13,28,15.80
2013,05,20,13,29,15.80
2013,05,20,13,30,15.80
2013,05,20,13,31,15.80
2013,05,20,13,32,16.00
2013,05,20,13,33,16.10
2013,05,20,13,34,16.10
2013,05,20,13,35,15.90
2013,05,20,13,36,15.80
2013,05,20,13,37,15.70
2013,05,20,13,38,15.70
2013,05,20,13,39,15.80
2013,05,20,13,40,15.80
2013,05,20,13,41,15.80
2013,05,20,13,42,15.80
2013,05,20,13,43,15.80
2013,05,20,13,44,15.70
2013,05,20,13,45,15.80
2013,05,20,13,46,15.80
2013,05,20,13,47,16.00
2013,05,20,13,48,16.00
2013,05,20,13,49,15.90
2013,05,20,13,50,15.80
2013,05,20,13,51,15.80
2013,05,20,13,52,15.90
2013,05,20,13,53,15.90
2013,05,20,13,54,16.10
2013,05,20,13,55,16.10
2013,05,20,13,56,16.10
2013,05,20,13,57,16.10
2013,05,20,13,58,16.00
2013,05,20,13,59,15.90
2013,05,20,14,00,15.90
2013,05,20,14,01,15.90
2013,05,20,14,02,15.90
2013,05,20,14,03,16.00
2013,05,20,14,04,16.10
2013,05,20,14,05,16.00
2013,05,20,14,06,16.10
2013,05,20,14,07,16.30
2013,05,20,14,08,16.30
2013,05,20,14,09,16.20
2013,05,20,14,10,16.20
2013,05,20,14,11,16.20
2013,05,20,14,12,16.10
2013,05,20,14,13,16.10
2013,05,20,14,14,16.10
2013,05,20,14,15,16.10
2013,05,20,14,16,16.10
2013,05,20,14,17,16.10
2013,05,20,14,18,16.20
2013,05,20,14,19,16.20
2013,05,20,14,20,16.20
2013,05,20,14,21,16.30
2013,05,20,14,22,16.40
2013,05,20,14,23,16.40
2013,05,20,14,24,16.40
2013,05,20,14,25,16.40
2013,05,20,14,26,16.40
2013,05,20,14,27,16.50
2013,05,20,14,28,16.60
2013,05,20,14,29,16.60
2013,05,20,14,30,16.60
2013,05,20,14,31,16.50
2013,05,20,14,32,16.40
2013,05,20,14,33,16.40
2013,05,20,14,34,16.30
2013,05,20,14,35,16.30
2013,05,20,14,36,16.30
2013,05,20,14,37,16.40
2013,05,20,14,38,16.40
2013,05,20,14,39,16.40
2013,05,20,14,40,16.50
2013,05,20,14,41,16.60
2013,05,20,14,42,16.40
2013,05,20,14,43,16.20
2013,05,20,14,44,16.20
2013,05,20,14,45,16.20
2013,05,20,14,46,16.30
2013,05,20,14,47,16.40
2013,05,20,14,48,16.50
2013,05,20,14,49,16.60
2013,05,20,14,50,16.60
2013,05,20,14,51,16.60
2013,05,20,14,52,16.70
2013,05,20,14,53,16.70
2013,05,20,14,54,16.60
2013,05,20,14,55,16.50
2013,05,20,14,56,16.40
2013,05,20,14,57,16.40
2013,05,20,14,58,16.30
2013,05,20,14,59,16.40
2013,05,20,15,00,16.40
2013,05,20,15,01,16.30
2013,05,20,15,02,16.20
2013,05,20,15,03,16.10
2013,05,20,15,04,16.10
2013,05,20,15,05,16.10
2013,05,20,15,06,15.90
2013,05,20,15,07,15.90
2013,05,20,15,08,15.90
2013,05,20,15,09,15.90
2013,05,20,15,10,16.00
2013,05,20,15,11,16.10
2013,05,20,15,12,16.20
2013,05,20,15,13,16.10
2013,05,20,15,14,16.10
2013,05,20,15,15,16.10
2013,05,20,15,16,16.10
2013,05,20,15,17,15.90
2013,05,20,15,18,16.10
2013,05,20,15,19,16.10
2013,05,20,15,20,16.20
2013,05,20,15,21,16.10
2013,05,20,15,22,16.10
2013,05,20,15,23,16.10
2013,05,20,15,24,16.10
2013,05,20,15,25,16.20
2013,05,20,15,26,16.30
2013,05,20,15,27,16.30
2013,05,20,15,28,16.40
2013,05,20,15,29,16.40
2013,05,20,15,30,16.40
2013,05,20,15,31,16.40
2013,05,20,15,32,16.40
2013,05,20,15,33,16.40
2013,05,20,15,34,16.40
2013,05,20,15,35,16.40
2013,05,20,15,36,16.40
2013,05,20,15,37,16.40
2013,05,20,15,38,16.40
2013,05,20,15,39,16.40
2013,05,20,15,40,16.30
2013,05,20,15,41,16.30
2013,05,20,15,42,16.40
2013,05,20,15,43,16.50
2013,05,20,15,44,16.60
2013,05,20,15,45,16.70
2013,05,20,15,46,16.70
2013,05,20,15,47,16.70
2013,05,20,15,48,16.70
2013,05,20,15,49,16.70
2013,05,20,15,50,16.70
2013,05,20,15,51,16.60
2013,05,20,15,52,16.60
2013,05,20,15,53,16.50
2013,05,20,15,54,16.40
2013,05,20,15,55,16.40
2013,05,20,15,56,16.40
2013,05,20,15,57,16.40
2013,05,20,15,58,16.50
2013,05,20,15,59,16.60
2013,05,20,16,00,16.60
2013,05,20,16,01,16.60
2013,05,20,16,02,16.60
2013,05,20,16,03,16.60
2013,05,20,16,04,16.70
2013,05,20,16,05,16.70
2013,05,20,16,06,16.80
2013,05,20,16,07,16.80
2013,05,20,16,08,16.90
2013,05,20,16,09,16.80
2013,05,20,16,10,16.70
2013,05,20,16,11,16.70
2013,05,20,16,12,16.70
2013,05,20,16,13,16.70
2013,05,20,16,14,16.80
2013,05,20,16,15,16.80
2013,05,20,16,16,16.80
2013,05,20,16,17,16.80
2013,05,20,16,18,16.70
2013,05,20,16,19,16.70
2013,05,20,16,20,16.70
2013,05,20,16,21,16.70
2013,05,20,16,22,16.70
2013,05,20,16,23,16.80
2013,05,20,16,24,16.90
2013,05,20,16,25,16.90
2013,05,20,16,26,16.90
2013,05,20,16,27,16.90
2013,05,20,16,28,16.90
2013,05,20,16,29,16.80
2013,05,20,16,30,16.90
2013,05,20,16,31,16.80
2013,05,20,16,32,16.80
2013,05,20,16,33,16.90
2013,05,20,16,34,16.90
2013,05,20,16,35,16.90
2013,05,20,16,36,16.90
2013,05,20,16,37,16.90
2013,05,20,16,38,17.00
2013,05,20,16,39,17.00
2013,05,20,16,40,17.00
2013,05,20,16,41,17.00
2013,05,20,16,42,17.00
2013,05,20,16,43,17.00
2013,05,20,16,44,17.00
2013,05,20,16,45,17.00
2013,05,20,16,46,17.00
2013,05,20,16,47,17.00
2013,05,20,16,48,17.10
2013,05,20,16,49,17.20
2013,05,20,16,50,17.30
2013,05,20,16,51,17.40
2013,05,20,16,52,17.40
2013,05,20,16,53,17.50
2013,05,20,16,54,17.50
2013,05,20,16,55,17.50
2013,05,20,16,56,17.50
2013,05,20,16,57,17.50
2013,05,20,16,58,17.40
2013,05,20,16,59,17.40
2013,05,20,17,00,17.40
2013,05,20,17,01,17.50
2013,05,20,17,02,17.50
2013,05,20,17,03,17.50
2013,05,20,17,04,17.60
2013,05,20,17,05,17.60
2013,05,20,17,06,17.60
2013,05,20,17,07,17.50
2013,05,20,17,08,17.50
2013,05,20,17,09,17.40
2013,05,20,17,10,17.30
2013,05,20,17,11,17.20
2013,05,20,17,12,17.20
2013,05,20,17,13,17.10
2013,05,20,17,14,17.10
2013,05,20,17,15,17.10
2013,05,20,17,16,17.10
2013,05,20,17,17,17.20
2013,05,20,17,18,17.30
2013,05,20,17,19,17.30
2013,05,20,17,20,17.40
2013,05,20,17,21,17.50
2013,05,20,17,22,17.60
2013,05,20,17,23,17.60
2013,05,20,17,24,17.60
2013,05,20,17,25,17.50
2013,05,20,17,26,17.40
2013,05,20,17,27,17.30
2013,05,20,17,28,17.30
2013,05,20,17,29,17.30
2013,05,20,17,30,17.20
2013,05,20,17,31,17.20
2013,05,20,17,32,17.20
2013,05,20,17,33,17.20
2013,05,20,17,34,17.10
2013,05,20,17,35,17.10
2013,05,20,17,36,17.20
2013,05,20,17,37,17.10
2013,05,20,17,38,17.00
2013,05,20,17,39,17.00